User: anonymous   Login
Location: Unspecified
(0.0000°N, 0.0000°E)
Time: 17:35:51
(UTC+00:00)
Language:

NOSS 2-2 (E) - Orbit

View from above orbital plane
View from above orbital plane
View from above satellite
View from above satellite

Ground track
Ground track

The orbit data is extracted from the following two-line orbital elements,

1 21809U 91076E   16334.76794629 0.00000100  00000-0  35595-4 0    05
2 21809  63.3540 253.5287 0728000  20.2070 339.7930 13.41306751    08
Epoch (UTC): 29 November 2016 18:25:50
Eccentricity: 0.0728000
inclination: 63.3540°
perigee height: 559 km
apogee height: 1649 km
right ascension of ascending node: 253.5287°
argument of perigee: 20.2070°
revolutions per day: 13.41306751
mean anomaly at epoch: 339.7930°
orbit number at epoch: 0

The dashed part of the orbit path shows where the satellite is in the earth's shadow,  

DLR